Edenton, NC

8:50 AM EST on November 23, 2017 (GMT -0500)
Northeastern Regional

Weather History for KEDE - August, 2013

Change the Weather History Date:

Friday, August 9, 2013

  Actual Average Record
Temperature  
Mean Temperature 84 °F -  
Max Temperature 90 °F 87 °F 96 °F (1941)
Min Temperature 77 °F 71 °F 60 °F (2002)
Cooling Degree Days 18    
Growing Degree Days 34 (Base 50)    
Moisture  
Dew Point 76 °F    
Average Humidity 81    
Maximum Humidity 100    
Minimum Humidity 58    
Precipitation  
Precipitation 0.00 in - - ()
Sea Level Pressure  
Sea Level Pressure 30.03 in    
Wind  
Wind Speed 9 mph (SW)    
Max Wind Speed 13 mph    
Max Gust Speed 18 mph    
Visibility 10 miles    
Events      
Averages and records for this station are not official NWS values.
T = Trace of Precipitation, MM = Missing Value Source: NWS Daily Summary

Daily Weather History Graph

Daily Weather History Graph

Search for Another Location

Airport or City:

Trip Planner

Search our weather history database for the weather conditions in past years. The results will help you decide how hot, cold, wet, or windy it might be!

Date:

Astronomy

Aug. 09, 2013 Rise Set
Actual Time 6:20 AM EDT 8:02 PM EDT
Civil Twilight 5:52 AM EDT 8:30 PM EDT
Nautical Twilight 5:19 AM EDT 9:03 PM EDT
Astronomical Twilight 4:43 AM EDT 9:38 PM EDT
Moon 8:56 AM EDT (8/9) 9:19 PM EDT (8/9)
Length of Visible Light 14h 37m
Length of Day
13h 42m
Waxing Crescent, 7% of the Moon is Illuminated
Aug 9
Waxing Crescent
Aug 14
First Quarter
Aug 20
Full
Aug 28
Last Quarter
Sep 5
New

Hourly Weather History & Observations

Time (EDT) Temp. Heat Index Dew Point Humidity Pressure Visibility Wind Dir Wind Speed Gust Speed Precip Events Conditions
12:15 AM 78.4 °F - 76.6 °F 94% 30.05 in 10.0 mi SSW 6.9 mph - N/A   Clear
12:35 AM 77.9 °F - 76.1 °F 94% 30.04 in 10.0 mi SSW 6.9 mph - N/A   Clear
12:55 AM 77.9 °F - 76.1 °F 94% 30.04 in 10.0 mi SSW 6.9 mph - N/A   Clear
1:15 AM 77.9 °F - 76.3 °F 95% 30.05 in 10.0 mi SSW 6.9 mph - N/A   Clear
1:35 AM 77.9 °F - 76.3 °F 95% 30.04 in 10.0 mi South 6.9 mph - N/A   Clear
1:55 AM 77.7 °F - 76.5 °F 96% 30.03 in 10.0 mi South 9.2 mph - N/A   Clear
2:15 AM 77.7 °F - 76.3 °F 95% 30.03 in 10.0 mi South 6.9 mph - N/A   Clear
2:35 AM 77.5 °F - 76.5 °F 96% 30.03 in 10.0 mi SSW 9.2 mph - N/A   Scattered Clouds
2:55 AM 77.5 °F - 77.5 °F 100% 30.03 in 10.0 mi SSW 9.2 mph - N/A   Scattered Clouds
3:15 AM 77.4 °F - 77.4 °F 100% 30.03 in 10.0 mi SSW 11.5 mph - N/A   Clear
3:35 AM 77.4 °F - 77.4 °F 100% 30.02 in 10.0 mi SW 9.2 mph - N/A   Clear
3:55 AM 77.2 °F - 77.2 °F 100% 30.03 in 10.0 mi SSW 9.2 mph - N/A   Scattered Clouds
4:15 AM 77.4 °F - 77.4 °F 100% 30.03 in 10.0 mi SW 8.1 mph - N/A   Scattered Clouds
4:35 AM 77.4 °F - 77.4 °F 100% 30.03 in 10.0 mi SW 8.1 mph - N/A   Scattered Clouds
4:55 AM 77.4 °F - 77.4 °F 100% 30.03 in 10.0 mi SW 8.1 mph - N/A   Mostly Cloudy
5:15 AM 77.2 °F - 77.2 °F 100% 30.03 in 10.0 mi SSW 8.1 mph - N/A   Overcast
5:35 AM 77.4 °F - 77.4 °F 100% 30.04 in 10.0 mi SW 8.1 mph - N/A   Mostly Cloudy
5:55 AM 77.4 °F - 77.4 °F 100% 30.05 in 10.0 mi SW 6.9 mph - N/A   Overcast
6:15 AM 77.7 °F - 77.7 °F 100% 30.05 in 10.0 mi SW 9.2 mph - N/A   Overcast
6:35 AM 77.9 °F - 77.4 °F 98% 30.05 in 10.0 mi SW 10.4 mph 17.3 mph N/A   Overcast
6:55 AM 77.9 °F - 77.9 °F 100% 30.05 in 10.0 mi WSW 8.1 mph - N/A   Overcast
7:15 AM 78.1 °F - 77.0 °F 96% 30.05 in 10.0 mi SW 8.1 mph - N/A   Mostly Cloudy
7:35 AM 78.4 °F - 77.4 °F 96% 30.05 in 7.0 mi SW 5.8 mph - N/A   Scattered Clouds
7:55 AM 78.4 °F - 77.4 °F 96% 30.05 in 10.0 mi SSW 6.9 mph - N/A   Scattered Clouds
8:15 AM 78.8 °F - 77.5 °F 96% 30.05 in 10.0 mi SSW 9.2 mph - N/A   Mostly Cloudy
8:35 AM 79.7 °F - 77.5 °F 93% 30.05 in 10.0 mi SW 10.4 mph - N/A   Scattered Clouds
8:55 AM 80.2 °F 86.5 °F 77.4 °F 91% 30.05 in 10.0 mi SW 9.2 mph - N/A   Clear
9:15 AM 81.0 °F 87.9 °F 77.0 °F 88% 30.05 in 10.0 mi SW 11.5 mph - N/A   Clear
9:35 AM 81.7 °F 88.7 °F 76.1 °F 83% 30.04 in 10.0 mi WSW 9.2 mph - N/A   Clear
9:55 AM 82.2 °F 89.3 °F 75.6 °F 80% 30.04 in 10.0 mi WSW 8.1 mph - N/A   Clear
10:15 AM 83.1 °F 91.0 °F 75.6 °F 78% 30.05 in 10.0 mi WSW 11.5 mph 16.1 mph N/A   Clear
10:35 AM 83.5 °F 91.2 °F 75.4 °F 76% 30.05 in 10.0 mi WSW 9.2 mph - N/A   Clear
10:55 AM 84.2 °F 92.6 °F 75.6 °F 75% 30.05 in 10.0 mi SW 11.5 mph - N/A   Clear
11:15 AM 84.4 °F 92.4 °F 74.8 °F 73% 30.06 in 10.0 mi WSW 11.5 mph - N/A   Clear
11:35 AM 85.1 °F 93.7 °F 75.0 °F 72% 30.05 in 10.0 mi SW 10.4 mph - N/A   Clear
11:55 AM 85.6 °F 94.2 °F 75.0 °F 70% 30.05 in 10.0 mi SW 11.5 mph - N/A   Clear
12:15 PM 85.8 °F 94.6 °F 75.2 °F 70% 30.05 in 10.0 mi SW 10.4 mph 17.3 mph N/A   Clear
12:35 PM 86.9 °F 97.3 °F 75.9 °F 70% 30.05 in 10.0 mi WSW 9.2 mph - N/A   Clear
12:55 PM 87.1 °F 96.8 °F 75.4 °F 68% 30.05 in 10.0 mi SW 11.5 mph 18.4 mph N/A   Clear
1:15 PM 87.3 °F 96.8 °F 75.0 °F 67% 30.04 in 10.0 mi WSW 9.2 mph 17.3 mph N/A   Clear
1:35 PM 87.6 °F 97.1 °F 75.2 °F 66% 30.04 in 10.0 mi SW 12.7 mph - N/A   Clear
1:55 PM 87.8 °F 96.6 °F 74.3 °F 64% 30.03 in 10.0 mi WSW 10.4 mph - N/A   Clear
2:15 PM 88.9 °F 99.2 °F 75.4 °F 64% 30.03 in 10.0 mi WSW 9.2 mph - N/A   Clear
2:35 PM 89.1 °F 99.1 °F 75.0 °F 63% 30.02 in 10.0 mi WSW 10.4 mph 16.1 mph N/A   Clear
2:55 PM 89.6 °F 99.3 °F 74.7 °F 61% 30.02 in 10.0 mi SW 11.5 mph 16.1 mph N/A   Clear
3:15 PM 89.8 °F 99.7 °F 74.7 °F 61% 30.01 in 10.0 mi SW 8.1 mph - N/A   Clear
3:35 PM 89.8 °F 99.7 °F 74.8 °F 61% 30.00 in 10.0 mi WSW 9.2 mph - N/A   Clear
3:55 PM 90.5 °F 99.7 °F 73.9 °F 58% 30.00 in 10.0 mi WSW 10.4 mph - N/A   Clear
4:15 PM 90.0 °F 99.6 °F 74.3 °F 60% 29.99 in 10.0 mi SW 9.2 mph - N/A   Clear
4:35 PM 90.1 °F 98.9 °F 73.4 °F 58% 29.99 in 10.0 mi SW 9.2 mph 17.3 mph N/A   Clear
4:55 PM 90.0 °F 99.6 °F 74.3 °F 60% 29.98 in 10.0 mi WSW 9.2 mph - N/A   Clear
5:15 PM 90.0 °F 98.5 °F 73.4 °F 58% 29.98 in 10.0 mi SW 11.5 mph 16.1 mph N/A   Clear
5:35 PM 90.0 °F 99.0 °F 73.8 °F 59% 29.98 in 10.0 mi WSW 10.4 mph - N/A   Clear
5:55 PM 89.8 °F 98.6 °F 73.9 °F 59% 29.97 in 10.0 mi SW 10.4 mph - N/A   Clear
6:15 PM 89.6 °F 98.2 °F 73.8 °F 59% 29.97 in 10.0 mi SW 10.4 mph - N/A   Clear
6:35 PM 88.9 °F 98.1 °F 74.1 °F 62% 29.97 in 10.0 mi SW 8.1 mph - N/A   Clear
6:55 PM 88.3 °F 97.4 °F 74.1 °F 63% 29.98 in 10.0 mi SW 8.1 mph - N/A   Clear
7:15 PM 87.8 °F 97.1 °F 74.7 °F 65% 29.98 in 10.0 mi SW 6.9 mph - N/A   Clear
7:35 PM 86.9 °F 96.4 °F 75.2 °F 68% 29.98 in 10.0 mi SSW 8.1 mph - N/A   Clear
7:55 PM 85.6 °F 95.5 °F 76.1 °F 73% 29.98 in 10.0 mi SSW 10.4 mph - N/A   Clear
8:15 PM 85.1 °F 95.8 °F 77.0 °F 77% 29.98 in 10.0 mi SSW 10.4 mph - N/A   Clear
8:35 PM 84.4 °F 94.6 °F 77.2 °F 79% 29.99 in 10.0 mi SSW 9.2 mph - N/A   Clear
8:55 PM 84.0 °F 93.7 °F 77.0 °F 79% 29.99 in 10.0 mi SSW 9.2 mph - N/A   Clear
9:15 PM 83.5 °F 92.9 °F 77.0 °F 81% 30.01 in 10.0 mi SSW 11.5 mph - N/A   Clear
9:35 PM 83.3 °F 92.4 °F 77.0 °F 81% 30.02 in 10.0 mi SSW 9.2 mph - N/A   Clear
9:55 PM 82.4 °F 90.9 °F 77.0 °F 84% 30.02 in 10.0 mi SSW 10.4 mph - N/A   Clear
10:15 PM 82.4 °F 90.6 °F 76.6 °F 83% 30.03 in 10.0 mi SSW 11.5 mph - N/A   Clear
10:35 PM 81.9 °F 89.2 °F 76.3 °F 83% 30.03 in 10.0 mi SSW 10.4 mph - N/A   Clear
10:55 PM 81.5 °F 88.5 °F 76.1 °F 84% 30.04 in 10.0 mi SSW 9.2 mph - N/A   Clear
11:15 PM 81.1 °F 87.6 °F 75.9 °F 84% 30.04 in 10.0 mi SSW 9.2 mph - N/A   Clear
11:35 PM 80.8 °F 86.9 °F 75.7 °F 85% 30.04 in 10.0 mi SW 9.2 mph - N/A   Clear
11:55 PM 80.8 °F 86.7 °F 75.4 °F 84% 30.04 in 10.0 mi SW 11.5 mph - N/A   Clear